Wind_Speed
28 31 33 35 36 35 36 37 37 37 39 39 40 40 45 44 44 41 38 32 32 29 25 23 25 27 26 23 25 24 24 28 31 28 25 28 26 24 10 32 37 24 39 51
30 31 34 36 36 37 36 36 36 36 39 40 40 41 44 45 43 38 35 33 31 30 27 28 25 26 26 28 28 27 25 25 27 24 23 26 25 24 25 18 24 42 14 57
32 33 35 37 36 37 36 34 35 35 38 38 40 41 44 46 43 37 35 35 32 28 28 29 29 27 25 28 31 34 31 28 25 25 20 24 20 21 26 23 23 42 27 33
32 33 36 37 38 38 36 34 32 34 37 39 38 41 45 45 42 36 34 35 34 32 30 30 31 31 29 28 30 34 40 30 32 26 27 19 16 14 20 24 19 26 35 32
33 34 36 38 40 38 38 34 32 32 35 37 36 41 44 43 41 38 34 36 32 33 34 35 34 35 34 32 28 36 39 33 33 28 25 18 7 14 18 26 23 20 28 43
34 34 36 39 40 39 37 35 33 31 32 36 35 40 43 43 42 35 36 37 34 33 36 38 39 38 35 33 29 24 38 35 32 31 29 26 13 18 16 20 25 27 23 37
35 35 36 38 41 40 37 36 34 31 31 35 36 39 44 43 38 36 34 36 37 36 39 39 33 31 32 28 25 24 31 33 34 27 28 26 19 16 16 13 20 24 19 33
36 36 37 38 41 40 35 36 35 32 30 33 35 38 44 41 36 34 35 38 39 37 37 34 29 24 23 17 22 20 19 32 27 23 25 23 18 13 13 17 14 13 20 19
36 37 37 38 40 40 35 34 36 33 30 31 36 38 43 41 34 34 33 35 37 36 32 29 24 12 12 13 4 6 4 26 28 21 23 21 15 11 19 11 10 8 17 19
37 37 37 39 40 40 34 34 36 34 30 32 37 39 41 37 36 36 34 33 35 31 26 20 14 7 8 13 10 12 7 14 17 19 21 16 13 17 16 10 11 13 14 15
37 38 38 39 40 40 35 35 36 35 31 31 37 39 39 36 35 35 33 32 31 26 19 14 12 6 9 8 9 8 13 18 17 18 18 22 16 17 19 15 17 17 21 17
38 39 39 39 40 38 35 34 36 35 33 30 36 38 37 38 35 32 31 31 30 21 15 11 10 11 11 11 10 7 5 7 8 18 22 28 25 17 18 22 15 15 16 16
39 40 40 39 39 39 37 34 35 36 33 28 35 35 38 36 32 27 29 30 27 21 16 13 12 10 11 9 11 12 11 14 20 18 17 27 27 28 22 31 15 21 18 18
41 40 41 39 40 40 38 35 36 36 34 30 30 37 37 36 34 30 27 29 26 21 20 17 13 13 13 11 13 12 13 21 25 26 21 26 24 30 30 29 24 18 28 22
42 42 42 40 40 40 38 37 36 36 34 32 28 33 35 36 36 31 27 27 27 21 19 18 15 15 20 17 11 6 15 18 23 22 25 28 22 26 29 32 30 30 30 27
43 43 44 42 42 40 39 37 36 36 35 33 29 32 35 35 35 31 25 24 23 20 18 17 15 19 21 16 1 8 16 20 20 15 22 29 22 27 26 27 24 28 29 28
45 45 45 43 43 40 39 38 37 35 36 34 31 32 35 35 32 28 24 24 23 23 20 16 18 16 19 12 11 14 18 20 21 22 18 24 29 26 25 26 28 29 28 27
48 48 46 44 42 39 36 39 36 37 36 34 31 29 33 34 31 31 30 25 24 22 21 17 17 20 20 14 16 16 19 20 22 21 20 17 23 25 27 27 26 27 30 33
50 48 45 43 41 38 38 38 38 38 36 34 31 31 32 31 28 28 28 25 25 22 16 17 21 19 15 16 19 21 19 18 15 19 17 16 12 14 20 23 26 28 31 34
49 46 44 42 40 39 39 39 39 39 35 32 29 31 31 29 30 27 27 22 21 19 16 20 19 12 12 22 23 22 23 21 19 20 13 14 18 24 21 19 23 27 30 36
45 43 42 43 42 40 40 41 40 37 32 32 31 29 29 29 27 25 25 21 21 19 16 21 20 14 26 26 26 24 22 23 24 23 20 16 16 18 19 23 26 27 32 36
46 45 45 44 44 43 42 41 39 34 32 33 31 27 28 27 24 24 23 22 24 22 20 19 17 15 17 18 21 26 29 28 25 23 22 22 22 24 25 26 27 29 31 30
49 48 47 46 46 45 43 39 35 33 32 32 29 26 27 25 26 26 25 24 23 21 21 21 18 25 28 29 27 27 27 26 25 25 25 27 28 28 28 28 28 28 28 26
48 48 47 46 46 43 40 37 36 35 33 31 29 29 28 26 25 26 26 24 26 35 31 24 26 28 27 30 34 32 31 26 24 25 26 26 28 28 32 35 36 36 36 34
47 48 47 45 42 41 38 37 35 32 30 33 33 32 31 28 27 26 28 32 37 41 37 39 40 37 38 41 36 27 25 23 22 22 23 26 29 33 37 40 41 42 41 38
47 47 45 42 41 41 38 35 33 35 37 38 38 36 35 32 30 29 27 27 28 33 37 39 40 39 38 32 22 21 24 24 23 24 26 30 34 36 36 35 36 36 35 33
46 41 41 41 40 38 38 37 34 35 37 39 40 39 37 37 37 31 26 25 27 31 33 35 35 34 33 29 24 23 27 29 29 30 31 33 35 33 32 33 32 29 27 24
Wind_Direction
324 327 331 333 332 329 322 317 318 317 313 315 318 323 324 326 322 319 316 318 313 306 303 301 294 291 282 272 278 264 269 268 281 278 281 287 283 290 291 236 239 254 238 219
322 325 327 330 331 329 323 318 319 317 314 316 319 325 325 325 324 319 317 317 312 305 304 298 293 288 282 278 275 275 262 265 274 272 283 281 297 290 290 302 242 238 255 219
320 323 326 329 332 328 322 318 318 318 315 316 320 326 325 326 325 321 317 317 311 305 302 299 296 287 286 281 274 267 266 258 257 266 279 287 289 297 293 289 260 247 239 203
317 321 323 325 329 328 321 317 317 317 314 316 321 326 325 327 324 320 317 317 312 309 307 301 294 296 294 288 277 266 264 255 252 252 264 279 298 291 289 288 272 260 230 231
314 318 319 322 326 327 320 315 316 316 314 315 320 323 325 327 322 322 318 319 314 311 309 301 303 298 297 291 267 266 259 256 246 237 252 260 281 292 289 288 263 278 235 230
312 315 317 321 324 325 319 313 315 316 315 314 319 321 324 325 323 323 318 318 312 309 302 302 306 305 299 292 278 257 255 250 246 239 245 249 286 293 292 289 271 264 249 238
309 312 316 319 322 324 317 311 312 315 316 315 318 324 323 324 322 320 319 314 308 309 310 307 308 302 295 296 290 270 250 241 242 246 247 252 264 280 286 274 284 272 264 232
306 309 314 317 320 321 315 308 309 312 315 314 316 323 325 325 320 317 317 308 310 313 310 307 309 302 302 306 303 295 246 222 232 246 246 247 262 269 274 255 258 245 254 240
303 307 311 315 319 318 313 306 306 309 313 312 315 321 323 325 319 313 315 310 311 314 312 311 314 332 343 337 311 107 236 215 229 242 247 248 261 261 251 264 220 243 255 255
300 304 309 313 317 314 310 303 302 306 310 312 313 319 325 325 317 320 316 311 312 313 312 314 319 339 2 344 341 208 206 211 234 246 249 239 251 248 243 234 230 251 248 264
297 301 307 312 315 310 307 300 298 303 306 313 313 317 325 320 316 319 314 311 314 315 313 320 317 314 323 323 338 332 248 232 240 247 241 246 244 232 235 233 230 240 256 263
294 299 304 309 311 306 303 296 297 298 302 310 309 316 321 319 317 318 310 310 314 311 307 316 328 311 307 295 293 312 219 241 233 256 249 259 256 237 235 232 250 228 261 256
292 297 302 307 308 301 298 292 292 295 300 306 304 314 318 320 313 314 308 308 313 294 286 288 299 308 293 294 283 286 271 253 225 256 244 256 264 263 247 220 242 218 257 255
291 294 300 304 303 298 294 288 289 293 297 302 306 308 316 321 314 313 309 306 309 292 274 278 292 293 273 275 279 292 286 259 251 252 250 247 268 272 260 268 268 247 236 270
289 293 298 300 298 295 290 286 287 288 292 296 303 304 313 316 311 312 313 306 308 294 282 283 291 308 288 282 299 308 278 278 271 262 254 252 261 267 269 268 272 266 269 275
288 291 297 296 292 289 285 283 284 286 288 293 297 303 310 313 311 311 308 304 308 291 272 276 296 290 290 312 220 299 283 275 285 275 252 243 253 255 254 247 253 258 259 252
286 290 294 291 287 283 282 283 282 284 284 287 293 300 307 310 312 306 301 299 300 293 280 274 280 280 285 304 309 287 297 295 289 279 263 242 255 253 254 254 253 253 263 262
285 289 290 285 283 280 278 279 280 280 282 284 289 298 304 311 309 306 305 302 297 290 272 256 270 272 282 304 305 303 304 300 299 291 271 267 245 246 250 255 258 258 260 265
284 286 282 279 277 276 274 274 276 279 280 282 285 290 300 302 300 298 298 298 295 287 272 255 263 282 284 298 302 311 317 312 306 296 287 286 266 267 265 266 267 266 266 266
281 277 274 274 273 272 271 272 272 275 277 279 278 283 294 300 297 296 297 297 295 294 273 254 259 281 279 299 297 305 307 289 308 313 299 287 276 281 289 291 281 277 277 274
271 269 270 271 270 269 268 268 271 274 275 273 270 277 288 293 297 297 300 303 300 299 289 270 274 285 293 292 289 292 295 301 299 299 296 286 286 289 288 286 287 287 284 280
265 266 266 266 265 265 266 269 270 273 271 270 270 275 283 289 289 287 290 291 293 294 286 284 291 276 282 289 289 294 300 303 303 297 287 287 282 283 285 285 287 286 284 283
261 261 262 263 262 263 269 269 270 268 266 263 263 267 273 279 279 280 281 285 291 282 282 282 295 289 290 294 297 298 297 294 296 295 287 280 283 288 290 292 294 293 291 288
259 259 259 259 262 265 265 265 261 261 263 262 257 258 263 269 270 271 271 261 256 269 289 295 286 287 292 301 303 299 295 286 283 287 292 291 291 296 297 296 294 292 292 292
255 256 256 258 261 262 263 263 265 263 259 252 249 253 258 262 267 268 271 270 271 278 287 287 287 289 294 300 300 291 287 283 281 282 282 287 292 294 295 293 292 290 288 286
254 253 257 258 258 260 259 258 254 252 248 249 250 250 253 256 263 269 275 281 288 284 278 277 281 284 288 294 293 288 286 288 292 293 295 297 296 295 294 294 292 290 283 280
258 261 259 259 258 258 258 253 246 243 242 242 244 247 251 257 260 266 280 290 284 284 282 280 280 281 282 278 273 273 272 288 295 295 295 296 296 298 297 295 293 284 279 274
Height
5636 5632 5628 5623 5617 5613 5608 5604 5601 5596 5589 5585 5578 5574 5566 5559 5550 5544 5540 5537 5532 5527 5526 5524 5521 5520 5518 5518 5516 5519 5518 5516 5516 5518 5518 5517 5517 5515 5514 5516 5518 5520 5526 5540
5629 5626 5621 5617 5611 5605 5601 5597 5593 5588 5582 5577 5572 5567 5559 5552 5545 5539 5535 5531 5526 5522 5520 5516 5515 5514 5513 5512 5511 5511 5512 5510 5509 5512 5513 5511 5511 5511 5508 5509 5511 5513 5517 5529
5623 5618 5614 5610 5605 5598 5593 5590 5587 5582 5576 5570 5566 5560 5553 5545 5538 5534 5528 5525 5520 5517 5514 5510 5507 5507 5507 5506 5504 5503 5502 5505 5504 5503 5504 5504 5507 5506 5504 5503 5505 5504 5512 5521
5616 5612 5608 5603 5598 5592 5587 5582 5580 5576 5569 5563 5559 5553 5546 5539 5533 5528 5522 5519 5513 5510 5507 5504 5501 5499 5499 5499 5496 5493 5491 5496 5496 5499 5498 5500 5500 5499 5499 5500 5500 5500 5508 5510
5609 5605 5600 5596 5592 5586 5580 5576 5574 5570 5563 5556 5552 5545 5540 5533 5526 5522 5518 5512 5509 5504 5500 5494 5492 5490 5489 5487 5487 5481 5480 5484 5487 5492 5494 5494 5497 5495 5493 5495 5497 5495 5498 5502
5602 5598 5593 5589 5584 5580 5573 5568 5566 5563 5559 5551 5546 5540 5532 5526 5519 5518 5511 5506 5501 5499 5493 5488 5484 5480 5475 5472 5472 5475 5469 5475 5478 5483 5487 5488 5494 5491 5490 5490 5492 5489 5492 5496
5594 5590 5586 5581 5577 5573 5567 5562 5559 5556 5554 5546 5540 5535 5527 5520 5514 5509 5507 5500 5493 5492 5486 5481 5476 5471 5465 5464 5462 5461 5461 5466 5469 5477 5480 5485 5488 5486 5486 5487 5488 5490 5489 5490
5586 5582 5578 5574 5569 5565 5561 5555 5552 5549 5548 5541 5534 5529 5521 5515 5509 5504 5498 5492 5488 5485 5479 5473 5469 5465 5461 5459 5456 5453 5454 5457 5465 5470 5475 5480 5482 5483 5481 5481 5485 5487 5489 5489
5578 5574 5570 5566 5561 5557 5554 5549 5544 5542 5541 5537 5528 5523 5516 5510 5504 5500 5494 5487 5482 5478 5473 5468 5463 5460 5458 5457 5455 5455 5457 5458 5463 5469 5470 5474 5477 5478 5477 5478 5481 5483 5484 5483
5569 5566 5562 5558 5553 5549 5546 5541 5538 5535 5534 5529 5522 5517 5511 5504 5498 5493 5488 5483 5477 5474 5469 5465 5462 5460 5459 5457 5456 5455 5455 5457 5461 5464 5466 5470 5472 5471 5473 5476 5480 5478 5479 5478
5560 5557 5553 5549 5545 5541 5539 5535 5530 5528 5527 5524 5515 5510 5506 5498 5493 5488 5483 5478 5473 5469 5467 5464 5462 5461 5460 5458 5457 5456 5456 5458 5461 5462 5464 5465 5466 5467 5470 5471 5470 5472 5472 5473
5550 5547 5544 5540 5536 5532 5530 5527 5523 5520 5519 5519 5509 5504 5500 5492 5487 5483 5478 5474 5469 5466 5464 5463 5461 5459 5458 5457 5457 5456 5457 5457 5459 5460 5460 5458 5460 5462 5463 5464 5465 5466 5467 5467
5540 5537 5534 5531 5527 5523 5521 5518 5515 5512 5511 5512 5504 5498 5493 5488 5483 5479 5474 5469 5466 5463 5462 5461 5460 5458 5457 5455 5456 5455 5455 5453 5451 5450 5455 5454 5454 5455 5457 5458 5459 5460 5463 5463
5529 5527 5524 5521 5518 5514 5512 5509 5506 5505 5503 5503 5499 5489 5487 5483 5477 5474 5469 5465 5462 5459 5458 5458 5457 5455 5454 5453 5451 5451 5449 5447 5447 5450 5453 5450 5451 5450 5452 5452 5453 5454 5455 5456
5518 5516 5514 5511 5507 5505 5503 5500 5498 5496 5496 5495 5493 5483 5480 5475 5470 5467 5464 5461 5457 5454 5453 5454 5453 5452 5448 5448 5448 5447 5442 5442 5443 5446 5446 5446 5448 5446 5445 5447 5447 5448 5449 5450
5506 5504 5502 5500 5497 5494 5492 5491 5490 5487 5486 5485 5484 5479 5472 5468 5464 5461 5458 5455 5452 5449 5449 5449 5450 5447 5444 5444 5444 5443 5440 5438 5437 5437 5436 5438 5441 5439 5440 5441 5442 5443 5444 5444
5494 5492 5490 5488 5485 5483 5482 5483 5480 5479 5477 5476 5475 5471 5466 5462 5459 5456 5453 5450 5447 5444 5443 5445 5444 5443 5441 5441 5440 5439 5436 5434 5432 5430 5430 5430 5432 5434 5434 5435 5436 5436 5437 5437
5481 5479 5478 5475 5474 5472 5472 5469 5470 5468 5468 5468 5467 5464 5459 5455 5451 5448 5444 5442 5440 5438 5437 5440 5440 5438 5437 5437 5435 5434 5432 5429 5426 5424 5423 5423 5423 5423 5425 5426 5428 5429 5429 5429
5467 5466 5464 5463 5463 5461 5460 5459 5458 5458 5460 5458 5459 5456 5453 5449 5445 5442 5439 5436 5432 5431 5432 5434 5433 5434 5433 5433 5431 5429 5427 5424 5422 5419 5418 5418 5418 5416 5417 5418 5419 5420 5421 5421
5453 5453 5452 5451 5451 5449 5449 5447 5447 5447 5449 5450 5450 5447 5445 5444 5439 5435 5434 5430 5427 5425 5427 5426 5427 5429 5430 5427 5426 5425 5423 5420 5419 5417 5414 5413 5412 5412 5411 5411 5411 5411 5410 5410
5439 5439 5439 5439 5438 5437 5436 5435 5436 5437 5440 5441 5439 5439 5437 5435 5433 5429 5426 5424 5422 5421 5423 5421 5422 5424 5422 5420 5420 5419 5418 5416 5414 5412 5410 5409 5407 5406 5405 5404 5403 5402 5401 5401
5424 5426 5425 5425 5424 5424 5424 5425 5426 5429 5430 5430 5429 5430 5429 5428 5426 5423 5421 5419 5417 5417 5417 5416 5417 5419 5416 5415 5414 5413 5412 5409 5407 5406 5404 5403 5401 5400 5399 5398 5396 5395 5393 5392
5408 5410 5411 5411 5411 5411 5413 5415 5417 5417 5417 5419 5420 5421 5421 5420 5418 5417 5415 5413 5411 5411 5410 5411 5414 5410 5409 5408 5406 5404 5403 5402 5401 5399 5397 5396 5394 5392 5391 5390 5388 5386 5384 5382
5392 5394 5397 5397 5398 5401 5403 5405 5404 5406 5408 5410 5410 5410 5412 5411 5410 5410 5409 5408 5407 5404 5405 5406 5404 5403 5402 5400 5397 5395 5393 5392 5392 5391 5390 5388 5385 5383 5380 5378 5376 5375 5373 5371
5377 5380 5382 5386 5390 5390 5392 5392 5393 5395 5397 5398 5399 5399 5401 5402 5402 5401 5401 5399 5397 5395 5398 5397 5395 5394 5393 5391 5389 5386 5384 5383 5383 5382 5381 5379 5377 5374 5371 5367 5364 5362 5360 5360
5361 5366 5372 5375 5377 5378 5379 5380 5381 5383 5385 5386 5387 5388 5389 5391 5392 5392 5392 5392 5392 5391 5387 5385 5385 5384 5383 5381 5380 5379 5378 5376 5375 5374 5372 5370 5367 5364 5360 5357 5353 5350 5348 5347
5349 5359 5361 5362 5363 5364 5364 5364 5368 5370 5371 5373 5374 5376 5378 5379 5380 5383 5384 5384 5382 5379 5377 5376 5375 5374 5374 5373 5372 5370 5369 5368 5367 5366 5364 5361 5358 5354 5351 5346 5343 5340 5339 5337